Location: Theydon Bois
(51.6750°N, 0.1050°E)
Time: 14:11:27
(UTC+00:00)

Envisat - Pass Details

Date: 18 December 2019
Orbit: 764 x 766 km, 98.1° (Epoch: 18 January)

Event Time Altitude Azimuth Distance (km) Brightness Sun altitude
Rises 19:21:14 0° 216° (SW) 3,225 6.7 -31.2°
Reaches altitude 10° 19:24:33 10° 239° (WSW) 2,304 6.1 -31.7°
Maximum altitude 19:27:26 15° 274° (W) 1,978 5.9 -32.1°
Drops below altitude 10° 19:30:19 10° 309° (NW) 2,314 6.1 -32.6°
Sets 19:33:41 0° 332° (NNW) 3,246 6.6 -33.1°
